Погода в Прибрежном

Россия / Калининградская область     54°42′04″N   20°37′30″E
темп.,
°C
ветер,
м/с
пор.,
м/с
влажн.,
%
обл.,
%
осадки,
мм/ч
давл.,
гПа
погр.,
м
6 мая, чт
чт623:00+6ююз498893 0.2 997199
02:00+5юз6148618 0.2 997663
05:00+5юз91695100 0.7 9971206
08:00+5зюз101692100 0.9 9991144
11:00+6зюз91685100 0.4 10001357
14:00+8зюз10167562 0.9 10021730
17:00+9з712675 0.6 10021794
20:00+5зюз348622 1.4 100350
7 мая, пт
пт723:00+3юз411915 0.0 1004212
02:00+2юз4109491 0.0 1004202
05:00+2юз3793100 0.0 1004131
08:00+6юз3581100 0.0 1004357
11:00+9зюз3558100 0.0 10041207
14:00+11зсз4453100 0.0 10041550
17:00+8ссз5670100 0.0 1005875
20:00+5сз4881100 0.0 1007343
8 мая, сб
сб823:00+2зсз379654 0.0 1008167
02:00+2зсз39976 0.0 1009222
05:00+1з339538 0.0 101142
08:00+6з567884 0.0 1013643
11:00+9з796927 0.5 10131454
14:00+9зсз797533 1.7 10151367
17:00+9зсз79747 1.1 10161235
20:00+5зсз36870 1.3 1017134
9 мая, вс
вс923:00+2юз33913 0.0 101842
02:00+1ююз369094 0.0 101992
05:00+2ю3683100 0.0 1019102
08:00+8ю597686 0.0 1019351
11:00+13ю7106175 0.0 10171004
14:00+13ю51267100 0.0 1016669
17:00+16ююз71171100 0.0 1016972
20:00+12ю41084100 0.0 1016207
10 мая, пн
пн1023:00+10ююв5148610 0.0 1017311
02:00+9ююв5138736 0.0 1017272
05:00+8ююв51488100 0.0 1016262
08:00+12ююв6147994 0.0 1017414
11:00+17ююв8126441 0.0 1017725
14:00+20ююв812635 0.0 10161071
17:00+19ююв8146642 0.0 10141191
20:00+16юв615760 0.0 1016460